Location: Constantia
(34.0183°S, 18.4411°E)
Time: 10:30:13
(UTC+00:00)

Cosmos 1844 - Pass Details

Date: 17 February 2020
Orbit: 824 x 867 km, 70.9° (Epoch: 04 April)

Event Time Altitude Azimuth Distance (km) Brightness Sun altitude
Exits shadow 03:48:03 - 312° (NW) 2,752 5.8 -7.6°
Reaches altitude 10° 03:48:51 10° 309° (NW) 2,479 5.5 -7.5°
Maximum altitude 03:54:04 36° 243° (WSW) 1,331 4.4 -6.5°
Drops below altitude 10° 03:59:25 10° 176° (S) 2,528 6.5 -5.4°
Sets 04:02:07 0° 168° (SSE) 3,476 7.4 -4.9°
